EW9931 Weather Reports


time (UTC)temp
C
wind
direction
speed
KPH
gust
KPH
rain 1hr
cm
rain 24hr
cm
rain mn
cm
humidity
%
barometer
mb
20260904154559 13 196 1.6 0.0 0.00 0.00 0.00 31 1004.2
20260904153105 13 162 0.0 0.0 0.00 0.00 0.00 31 1004.0
20260904151555 13 188 0.0 0.0 0.00 0.00 0.00 32 1004.2
20260904150055 12 172 0.0 0.0 0.00 0.00 0.00 32 1004.2
20260904144554 12 179 0.0 0.0 0.00 0.00 0.00 33 1004.1
20260904143050 12 154 0.0 0.0 0.00 0.00 0.00 33 1004.5
20260904141548 11 167 0.0 0.0 0.00 0.00 0.00 34 1004.2
20260904140048 11 148 0.0 0.0 0.00 0.00 0.00 35 1003.9
20260904134547 11 144 0.0 0.0 0.00 0.00 0.00 35 1003.9
20260904133046 11 160 0.0 0.0 0.00 0.00 0.00 36 1003.9
20260904131545 11 165 0.0 0.0 0.00 0.00 0.00 36 1003.8
20260904130045 11 161 0.0 0.0 0.00 0.00 0.00 36 1002.7
20260904124555 11 144 0.0 0.0 0.00 0.00 0.00 36 1002.5
20260904123043 11 143 0.0 0.0 0.00 0.00 0.00 37 1002.4
20260904121542 11 145 0.0 0.0 0.00 0.00 0.00 37 1002.3
20260904120046 11 176 0.0 0.0 0.00 0.00 0.00 37 1001.4
20260904114544 11 144 0.0 0.0 0.00 0.00 0.00 38 1001.3
20260904113047 11 200 1.6 0.0 0.00 0.00 0.00 38 1001.4
20260904111538 11 164 0.0 0.0 0.00 0.00 0.00 39 1001.8
20260904110038 10 148 0.0 0.0 0.00 0.00 0.00 38 1001.4
20260904104537 11 184 0.0 0.0 0.00 0.00 0.00 39 1001.4
20260904103040 11 151 0.0 0.0 0.00 0.00 0.00 40 1001.4
20260904101534 11 141 0.0 0.0 0.00 0.00 0.00 40 1001.1
20260904100033 11 202 0.0 0.0 0.00 0.00 0.00 42 1000.6
20260904094534 10 179 0.0 0.0 0.00 0.00 0.00 44 1000.6
20260904093031 11 128 0.0 0.0 0.00 0.00 0.00 45 1000.7
20260904091531 11 162 0.0 0.0 0.00 0.00 0.00 45 1000.5
20260904090029 11 178 1.6 0.0 0.00 0.00 0.00 45 1000.1
20260904084529 11 181 1.6 0.0 0.00 0.00 0.00 45 1000.2
20260904083029 11 151 3.2 0.0 0.00 0.00 0.00 44 1000.2
20260904081525 11 162 1.6 0.0 0.00 0.00 0.00 42 1000.4
20260904080022 11 208 0.0 0.0 0.00 0.00 0.00 40 1001.3
20260904074524 11 167 1.6 0.0 0.00 0.00 0.00 39 1001.2
20260904073014 12 199 1.6 0.0 0.00 0.00 0.00 39 1001.3
20260904071509 12 171 1.6 0.0 0.00 0.00 0.00 37 1001.4
20260904070005 12 145 0.0 0.0 0.00 0.00 0.00 34 1001.6
20260904064601 12 145 0.0 0.0 0.00 0.00 0.00 36 1001.6
20260904063100 12 145 0.0 0.0 0.00 0.00 0.00 39 1001.4
20260904061601 12 151 0.0 0.0 0.00 0.00 0.00 41 1001.3
20260904060048 12 120 0.0 0.0 0.00 0.00 0.00 36 1002.0
20260904054546 13 162 1.6 0.0 0.00 0.00 0.00 30 1001.5
20260904053041 13 195 1.6 0.0 0.00 0.00 0.00 27 1001.7
20260904051538 13 147 0.0 0.0 0.00 0.00 0.00 25 1001.8
20260904050035 13 208 0.0 0.0 0.00 0.00 0.00 24 1002.3
20260904044525 13 136 0.0 0.0 0.00 0.00 0.00 24 1002.2
20260904043022 13 141 0.0 0.0 0.00 0.00 0.00 26 1002.2
20260904041518 13 155 0.0 0.0 0.00 0.00 0.00 27 1002.4
20260904040014 13 143 0.0 0.0 0.00 0.00 0.00 27 1002.6
20260904034509 13 143 0.0 0.0 0.00 0.00 0.00 29 1002.5
20260904033004 13 143 0.0 0.0 0.00 0.00 0.00 30 1002.5
20260904031602 13 143 0.0 0.0 0.00 0.00 0.00 30 1002.5
20260904030056 13 150 0.0 0.0 0.00 0.00 0.00 32 1003.4
20260904024554 13 155 0.0 0.0 0.00 0.00 0.00 34 1003.0
20260904023050 13 148 0.0 0.0 0.00 0.00 0.00 37 1003.2
20260904021550 13 184 0.0 0.0 0.00 0.00 0.00 41 1003.2
20260904020039 13 185 0.0 0.0 0.00 0.00 0.00 47 1003.4
20260904014542 14 147 0.0 0.0 0.00 0.00 0.00 46 1003.0
20260904013031 14 155 0.0 0.0 0.00 0.00 0.00 43 1003.2
20260904011529 15 184 1.6 0.0 0.00 0.00 0.00 42 1003.4
20260904010021 15 189 1.6 0.0 0.00 0.00 0.00 39 1003.2
20260904004517 16 216 3.2 0.0 0.00 0.00 0.00 33 1003.2
20260904003012 17 174 1.6 0.0 0.00 0.00 0.00 31 1002.8
20260904001507 17 167 3.2 0.0 0.00 0.00 0.00 31 1002.4
20260904000003 18 124 1.6 0.0 0.00 0.00 0.00 28 1002.6
20260903234559 18 196 3.2 0.0 0.00 0.00 0.00 25 1002.2
20260903233056 19 162 1.6 0.0 0.00 0.00 0.00 23 1002.2
20260903231559 19 195 3.2 0.0 0.00 0.00 0.00 23 1002.1
20260903230051 19 208 1.6 0.0 0.00 0.00 0.00 22 1002.8
20260903224547 19 219 3.2 0.0 0.00 0.00 0.00 23 1002.4
20260903223037 19 124 1.6 0.0 0.00 0.00 0.00 23 1002.7
20260903221533 19 224 1.6 0.0 0.00 0.00 0.00 23 1002.5
20260903220029 19 234 3.2 0.0 0.00 0.00 0.00 23 1002.5
20260903214533 20 143 1.6 0.0 0.00 0.00 0.00 21 1002.9
20260903213032 19 131 1.6 0.0 0.00 0.00 0.00 22 1003.0
20260903211515 20 200 1.6 0.0 0.00 0.00 0.00 21 1002.9
20260903210011 20 193 1.6 0.0 0.00 0.00 0.00 21 1003.3
20260903204507 20 152 1.6 0.0 0.00 0.00 0.00 22 1003.4
20260903203003 19 229 1.6 0.0 0.00 0.00 0.00 23 1003.7
20260903201600 18 205 1.6 0.0 0.00 0.00 0.00 22 1004.0
20260903200053 18 244 1.6 0.0 0.00 0.00 0.00 24 1003.3
20260903194554 18 223 0.0 0.0 0.00 0.00 0.00 24 1003.4
20260903193050 18 208 1.6 0.0 0.00 0.00 0.00 22 1004.1
20260903191545 18 230 1.6 0.0 0.00 0.00 0.00 22 1004.2
20260903190049 18 208 0.0 0.0 0.00 0.00 0.00 21 1004.5
20260903184532 17 222 1.6 0.0 0.00 0.00 0.00 21 1005.3
20260903183028 17 206 1.6 0.0 0.00 0.00 0.00 20 1005.2
20260903181537 17 136 0.0 0.0 0.00 0.00 0.00 17 1005.4
20260903180019 17 141 0.0 0.0 0.00 0.00 0.00 18 1005.8
20260903174515 17 219 0.0 0.0 0.00 0.00 0.00 19 1005.8
20260903173010 16 176 0.0 0.0 0.00 0.00 0.00 16 1005.8
20260903171518 16 138 0.0 0.0 0.00 0.00 0.00 17 1005.7
20260903170003 16 157 0.0 0.0 0.00 0.00 0.00 18 1005.4
20260903164600 15 215 0.0 0.0 0.00 0.00 0.00 16 1005.4
20260903163108 15 141 0.0 0.0 0.00 0.00 0.00 15 1005.9
20260903161550 15 200 0.0 0.0 0.00 0.00 0.00 15 1005.9
20260903160044 15 154 0.0 0.0 0.00 0.00 0.00 16 1005.8